Location: Chateh
(58.6667°N, 118.6000°W)
Time: 08:28:02
(UTC+00:00)

O/OREOS (USA 219) - Pass Details

Date: 06 December 2023
Orbit: 621 x 646 km, 72.0° (Epoch: 22 May)

Event Time Altitude Azimuth Distance (km) Brightness Sun altitude
Exits shadow 14:55:29 - 330° (NNW) 2,061 ? -10.5°
Reaches altitude 10° 14:55:38 10° 331° (NNW) 2,009 ? -10.5°
Maximum altitude 14:59:52 39° 41° (NE) 944 ? -10.0°
Drops below altitude 10° 15:04:07 10° 111° (ESE) 2,010 ? -9.5°
Sets 15:06:30 0° 119° (ESE) 2,919 ? -9.2°
